Location: Coupvray
(48.8929°N, 2.7967°E)
Time: 10:44:05
(UTC+00:00)

Cosmos 1241 Rocket - Pass Details

Date: 14 July 2020
Orbit: 935 x 1012 km, 65.8° (Epoch: 05 August)

Event Time Altitude Azimuth Distance (km) Brightness Sun altitude
Rises 01:22:39 0° 322° (NW) 3,680 8.0 -16.8°
Reaches altitude 10° 01:25:12 10° 321° (NW) 2,741 7.2 -16.6°
Maximum altitude 01:31:39 83° 236° (WSW) 1,007 4.5 -16.2°
Drops below altitude 10° 01:38:11 10° 149° (SSE) 2,773 6.6 -15.8°
Sets 01:40:46 0° 148° (SSE) 3,726 7.2 -15.6°
